Terminal Aerodrome Forecast
Issued by NWS Omaha/Valley, NE

Home | Current Version | Previous Version | Text Only | Print | Product List | Glossary On
Versions: 1 2 3 4 5 6 7 8 9 10 11 12 13 14 15 16 17 18 19 20 21 22 23 24 25 26 27 28 29 30 31 32 33 34 35 36 37 38 39 40 41 42 43 44 45 46 47 48 49 50
000
FTUS43 KOAX 291725
TAFOMA
TAF
KOMA 291725Z 2918/3018 22005KT P6SM SCT015 OVC025
      TEMPO 2918/2922 3SM TSRA BKN015CB
     FM292300 25006KT P6SM OVC100
     FM300600 31006KT P6SM BKN025
      TEMPO 3009/3013 2SM BR OVC008
     FM301300 32005KT 5SM BR BKN015
     FM301600 31006KT P6SM SCT100=

USA.gov is the U.S. government's official web portal to all federal, state and local government web resources and services.